TimeEST,TemperatureF,Dew PointF,Humidity,Sea Level PressureIn,VisibilityMPH,Wind Direction,Wind SpeedMPH,Gust SpeedMPH,PrecipitationIn,Events,Conditions,WindDirDegrees,DateUTC
12:52 AM,43.0,41.0,93,29.44,10.0,West,4.6,-,N/A,,Partly Cloudy,270,2012-12-19 05:52:00
1:52 AM,44.1,41.0,89,29.44,10.0,WNW,8.1,-,N/A,,Clear,290,2012-12-19 06:52:00
2:52 AM,43.0,39.9,89,29.45,10.0,Variable,6.9,-,N/A,,Scattered Clouds,0,2012-12-19 07:52:00
3:05 AM,42.8,39.2,87,29.44,10.0,West,8.1,-,N/A,,Mostly Cloudy,280,2012-12-19 08:05:00
3:52 AM,43.0,39.9,89,29.46,10.0,West,6.9,-,N/A,,Overcast,270,2012-12-19 08:52:00
4:52 AM,42.1,37.9,85,29.47,10.0,West,9.2,-,N/A,,Overcast,260,2012-12-19 09:52:00
5:52 AM,41.0,35.1,79,29.48,10.0,Variable,6.9,17.3,N/A,,Overcast,0,2012-12-19 10:52:00
6:52 AM,41.0,35.1,79,29.48,10.0,WNW,11.5,19.6,0.01,,Overcast,300,2012-12-19 11:52:00
7:52 AM,41.0,34.0,76,29.49,10.0,WNW,11.5,21.9,N/A,,Overcast,300,2012-12-19 12:52:00
8:52 AM,42.1,34.0,73,29.51,10.0,NW,12.7,29.9,N/A,,Overcast,310,2012-12-19 13:52:00
9:52 AM,41.0,35.1,79,29.53,10.0,NW,12.7,25.3,0.01,,Overcast,310,2012-12-19 14:52:00
10:52 AM,42.1,35.1,76,29.53,10.0,WNW,11.5,35.7,N/A,,Overcast,300,2012-12-19 15:52:00
11:52 AM,41.0,36.0,82,29.54,9.0,NW,11.5,26.5,0.00,Rain,Light Rain,320,2012-12-19 16:52:00
12:52 PM,41.0,36.0,82,29.57,10.0,NW,10.4,26.5,0.03,Rain,Light Rain,320,2012-12-19 17:52:00
1:43 PM,39.2,37.4,93,29.59,2.0,NNW,13.8,32.2,0.01,Rain,Light Rain,330,2012-12-19 18:43:00
1:52 PM,39.9,37.9,93,29.61,2.0,NW,10.4,29.9,0.02,Rain,Light Rain,320,2012-12-19 18:52:00
2:08 PM,41.0,37.4,87,29.61,3.0,NNW,12.7,26.5,0.01,Rain,Light Rain,330,2012-12-19 19:08:00
2:49 PM,39.2,37.4,93,29.64,10.0,NNW,13.8,33.4,0.01,Rain,Light Rain,330,2012-12-19 19:49:00
2:52 PM,41.0,37.0,86,29.65,10.0,NNW,16.1,29.9,0.01,Rain,Light Rain,330,2012-12-19 19:52:00
3:13 PM,41.0,37.4,87,29.66,10.0,NNW,15.0,29.9,0.00,,Overcast,340,2012-12-19 20:13:00
3:52 PM,41.0,36.0,82,29.69,10.0,NNW,9.2,26.5,0.00,,Mostly Cloudy,340,2012-12-19 20:52:00
4:30 PM,41.0,35.6,81,29.71,10.0,North,12.7,29.9,N/A,,Mostly Cloudy,350,2012-12-19 21:30:00
4:52 PM,42.1,35.1,76,29.73,10.0,NNW,10.4,25.3,N/A,,Overcast,340,2012-12-19 21:52:00
5:02 PM,42.8,35.6,76,29.74,10.0,North,13.8,29.9,N/A,,Overcast,350,2012-12-19 22:02:00
5:49 PM,42.8,33.8,70,29.77,10.0,North,12.7,28.8,N/A,,Mostly Cloudy,350,2012-12-19 22:49:00
5:52 PM,42.1,33.1,70,29.78,10.0,NNW,9.2,28.8,N/A,,Mostly Cloudy,340,2012-12-19 22:52:00
6:05 PM,42.8,33.8,70,29.78,10.0,NNW,12.7,24.2,0.00,Rain,Light Rain,340,2012-12-19 23:05:00
6:16 PM,42.8,33.8,70,29.79,10.0,North,11.5,31.1,0.00,Rain,Light Rain,350,2012-12-19 23:16:00
6:26 PM,42.8,33.8,70,29.80,10.0,North,11.5,24.2,0.00,,Overcast,360,2012-12-19 23:26:00
6:35 PM,42.8,33.8,70,29.81,10.0,NNW,12.7,29.9,0.00,,Overcast,340,2012-12-19 23:35:00
6:52 PM,42.1,33.1,70,29.83,10.0,North,11.5,25.3,0.00,,Overcast,350,2012-12-19 23:52:00
7:02 PM,42.8,33.8,70,29.83,10.0,NNW,9.2,24.2,N/A,,Overcast,340,2012-12-20 00:02:00
7:31 PM,42.8,33.8,70,29.85,10.0,NNW,13.8,25.3,N/A,,Mostly Cloudy,340,2012-12-20 00:31:00
7:52 PM,42.1,33.1,70,29.87,10.0,NNW,10.4,20.7,N/A,,Mostly Cloudy,330,2012-12-20 00:52:00
8:52 PM,42.1,33.1,70,29.90,10.0,NNW,13.8,25.3,N/A,,Overcast,340,2012-12-20 01:52:00
9:29 PM,41.0,33.8,76,29.91,10.0,Variable,6.9,19.6,N/A,,Mostly Cloudy,0,2012-12-20 02:29:00
9:52 PM,41.0,33.1,73,29.92,10.0,NNW,10.4,18.4,0.00,,Mostly Cloudy,340,2012-12-20 02:52:00
10:52 PM,41.0,33.1,73,29.96,10.0,North,9.2,21.9,0.00,Rain,Light Rain,350,2012-12-20 03:52:00
11:52 PM,41.0,34.0,76,29.98,10.0,Variable,6.9,16.1,0.00,Rain,Light Rain,0,2012-12-20 04:52:00